Weather History for 62463 - November, 2013

Change the Weather History Date:

Friday, November 8, 2013

  Actual Average Record
Temperature  
Mean Temperature 78 °F -  
Max Temperature 89 °F 75 °F - ()
Min Temperature 67 °F 60 °F - ()
Cooling Degree Days 13    
Growing Degree Days 28 (Base 50)    
Moisture  
Dew Point 54 °F    
Average Humidity 43    
Maximum Humidity 57    
Minimum Humidity 29    
Precipitation  
Precipitation 0.00 in - - ()
Sea Level Pressure  
Sea Level Pressure 29.80 in    
Wind  
Wind Speed 7 mph ()    
Max Wind Speed 15 mph    
Max Gust Speed -    
Visibility 6.0 miles    
Events      
T = Trace of Precipitation, MM = Missing Value Source: Averaged Metar Reports

Daily Weather History Graph

Daily Weather History Graph

Search for Another Location

Airport or City:

Trip Planner

Search our weather history database for the weather conditions in past years. The results will help you decide how hot, cold, wet, or windy it might be!

Date:

Astronomy

Nov. 08, 2013 Rise Set
Actual Time 5:59 AM EET 4:56 PM EET
Civil Twilight 5:35 AM EET 5:21 PM EET
Nautical Twilight 5:07 AM EET 5:49 PM EET
Astronomical Twilight 4:40 AM EET 6:16 PM EET
Moon 10:38 AM EET (11/8) 9:54 PM EET (11/8)
Length of Visible Light 11h 45m
Length of Day
10h 57m
Waxing Crescent, 30% of the Moon is Illuminated
Nov 8
Waxing Crescent
Nov 10
First Quarter
Nov 17
Full
Nov 25
Last Quarter
Dec 3
New

Hourly Weather History & Observations

Time (EET) Temp. Heat Index Dew Point Humidity Pressure Visibility Wind Dir Wind Speed Gust Speed Precip Events Conditions
1:00 AM 71.6 °F - 41.0 °F 33% 29.77 in - Calm Calm - N/A   Clear
2:00 AM 72 °F - 48 °F 31% 29.79 in 6 mi NNW 12.7 mph - -  
3:00 AM 73.4 °F - 55.4 °F 53% 29.80 in - NNW 15.0 mph - N/A   Clear
4:00 AM 71.6 °F - 50.0 °F 46% 29.80 in - NW 11.5 mph - N/A   Clear
5:00 AM 71.6 °F - 50.0 °F 46% 29.80 in - NW 12.7 mph - N/A   Clear
6:00 AM 69.8 °F - 48.2 °F 46% 29.80 in - NW 9.2 mph - N/A   Clear
7:00 AM 71.6 °F - 46.4 °F 41% 29.83 in - NW 9.2 mph - N/A   Clear
8:00 AM 74 °F - 48 °F 29% 29.84 in 6 mi WNW 9.2 mph - -  
8:00 AM 73.4 °F - 48.2 °F 41% 29.83 in - WNW 9.2 mph - N/A   Clear
9:00 AM 77.0 °F - 53.6 °F 44% 29.83 in - NNW 11.5 mph - N/A   Clear
10:00 AM 82.4 °F - 50.0 °F 32% 29.83 in - NNW 12.7 mph - N/A   Clear
11:00 AM 84.2 °F 82.8 °F 53.6 °F 35% 29.80 in - North 11.5 mph - N/A   Clear
1:00 PM 89.6 °F 92.2 °F 66.2 °F 46% 29.77 in - North 4.6 mph - N/A   Clear
2:00 PM 88 °F - 66 °F 39% 29.76 in 6 mi NNE 5.8 mph - -  
2:00 PM 87.8 °F 90.4 °F 66.2 °F 49% 29.74 in - NNE 5.8 mph - N/A   Clear
3:00 PM 86.0 °F 87.3 °F 64.4 °F 48% 29.74 in - NNE 6.9 mph - N/A   Clear
4:00 PM 84.2 °F 85.0 °F 62.6 °F 48% 29.74 in - Calm Calm - N/A   Clear
5:00 PM 80.6 °F 81.1 °F 59.0 °F 48% 29.77 in - Calm Calm - N/A   Clear
7:00 PM 77.0 °F - 60.8 °F 57% 29.80 in - Calm Calm - N/A   Clear
8:00 PM 75 °F - 57 °F 43% 29.82 in 6 mi Calm Calm - -  
8:00 PM 75.2 °F - 57.2 °F 53% 29.80 in - Calm Calm - N/A   Clear
9:00 PM 73.4 °F - 50.0 °F 44% 29.83 in - NW 4.6 mph - N/A   Clear
10:00 PM 73.4 °F - 50.0 °F 44% 29.83 in - NW 11.5 mph - N/A   Clear
11:00 PM 73.4 °F - 50.0 °F 44% 29.83 in - WNW 8.1 mph - N/A   Clear